Data for 07/15/2017

Time Sea-Level Adjusted Pressure Absolute Pressure Temperature Relative Humidity Dew Point   
(mb) (inHg) (mb) (inHg) (C) (F) (%) (C) (F)
00:05 1026 30.3 855 25.25 24.5 76.1 28 4.8 40.6
00:10 1026 30.3 855 25.25 24.3 75.7 28 4.8 40.6
00:15 1026 30.3 855 25.25 24 75.2 29 5 41
00:20 1026 30.3 855 25.25 23.8 74.9 29 4.9 40.9
00:25 1026 30.3 855 25.25 23.8 74.8 28 4.6 40.3
00:30 1026 30.3 855 25.25 23.9 75 27 4.1 39.3
00:35 1025 30.27 855 25.25 24.1 75.4 26 3.9 38.9
00:40 1026 30.3 855 25.25 24.1 75.4 26 3.8 38.9
00:45 1025 30.27 855 25.25 24.2 75.5 26 3.6 38.5
00:50 1025 30.27 855 25.25 24.1 75.4 26 3.4 38.2
00:55 1025 30.27 855 25.25 24.1 75.4 25 2.9 37.2
01:00 1025 30.27 855 25.25 24.3 75.7 25 3 37.4
01:05 1025 30.27 855 25.25 24.2 75.6 25 3 37.5
01:10 1025 30.27 855 25.25 24.1 75.4 25 3 37.3
01:15 1025 30.27 855 25.25 24.2 75.5 25 2.9 37.2
01:20 1025 30.27 855 25.25 24.1 75.4 25 2.9 37.2
01:25 1025 30.27 855 25.25 24.3 75.7 24 2.5 36.5
01:30 1025 30.27 854 25.22 24.4 75.9 24 2.5 36.5
01:35 1025 30.27 854 25.22 24.4 75.8 23 2.4 36.3
01:40 1025 30.27 854 25.22 24.5 76 23 2.5 36.5
01:45 1025 30.27 854 25.22 24.4 75.9 23 2.4 36.4
01:50 1025 30.27 854 25.22 24.3 75.8 23 2.3 36.2
01:55 1025 30.27 854 25.22 24.4 75.8 24 2.4 36.4
02:00 1025 30.27 854 25.22 24.2 75.6 24 2.5 36.4
02:05 1025 30.27 854 25.22 24.2 75.5 24 2.4 36.4
02:10 1025 30.27 854 25.22 24.2 75.5 24 2.3 36.2
02:15 1025 30.27 855 25.25 24.2 75.5 24 2.3 36.2
02:20 1025 30.27 854 25.22 24 75.2 24 2.5 36.4
02:25 1025 30.27 854 25.22 23.9 75 24 2.5 36.5
02:30 1025 30.27 854 25.22 23.7 74.6 25 2.6 36.7
02:35 1025 30.27 854 25.22 23.6 74.5 25 2.4 36.3
02:40 1025 30.27 854 25.22 23.5 74.2 25 2.8 37
02:45 1025 30.27 854 25.22 23.3 73.9 25 2.6 36.7
02:50 1025 30.27 854 25.22 23.4 74.1 25 2.4 36.3
02:55 1025 30.27 854 25.22 23.5 74.3 25 2.3 36.2
03:00 1025 30.27 854 25.22 23.5 74.3 25 2.3 36.1
03:05 1025 30.27 854 25.22 23.4 74.2 24 2.2 36
03:10 1025 30.27 854 25.22 23.4 74.2 24 2.2 35.9
03:15 1025 30.27 854 25.22 23.4 74.2 24 2.2 36
03:20 1025 30.27 854 25.22 23.4 74.1 24 2.1 35.8
03:25 1025 30.27 854 25.22 23.3 74 25 2.1 35.8
03:30 1025 30.27 854 25.22 23.3 73.9 25 2.2 36
03:35 1025 30.27 854 25.22 23.1 73.6 25 2.3 36.1
03:40 1025 30.27 854 25.22 23 73.5 25 2.3 36.1
03:45 1025 30.27 854 25.22 23.1 73.6 25 2 35.6
03:50 1025 30.27 854 25.22 23.2 73.7 25 2 35.7
03:55 1025 30.27 854 25.22 23.3 73.9 24 1.9 35.4
04:00 1025 30.27 854 25.22 23.1 73.6 25 2.1 35.8
04:05 1025 30.27 854 25.22 23 73.4 25 2.1 35.7
04:10 1025 30.27 854 25.22 23 73.3 25 2.1 35.7
04:15 1025 30.27 854 25.22 22.9 73.2 25 2 35.6
04:20 1025 30.27 854 25.22 22.9 73.2 25 2 35.6
04:25 1025 30.27 854 25.22 22.9 73.2 25 1.8 35.3
04:30 1025 30.27 854 25.22 22.9 73.2 25 1.8 35.2
04:35 1025 30.27 854 25.22 22.9 73.2 25 1.9 35.5
04:40 1025 30.27 854 25.22 22.8 73 25 1.9 35.4
04:45 1025 30.27 854 25.22 22.7 72.9 25 2 35.5
04:50 1025 30.27 854 25.22 22.6 72.7 25 1.8 35.3
04:55 1025 30.27 854 25.22 22.6 72.7 25 1.8 35.3
05:00 1025 30.27 854 25.22 22.7 72.9 25 1.6 34.9
05:05 1025 30.27 854 25.22 22.8 73.1 25 1.7 35.1
05:10 1025 30.27 854 25.22 22.9 73.1 25 1.9 35.4
05:15 1025 30.27 854 25.22 22.8 73.1 25 1.8 35.2
05:20 1025 30.27 854 25.22 22.7 72.8 25 2 35.6
05:25 1025 30.27 854 25.22 22.5 72.5 26 2.1 35.7
05:30 1025 30.27 854 25.22 22.5 72.4 26 2 35.7
05:35 1025 30.27 854 25.22 22.4 72.2 26 2.2 36
05:40 1025 30.27 854 25.22 22.3 72.1 26 2 35.5
05:45 1025 30.27 854 25.22 22.2 71.9 26 2.1 35.8
05:50 1025 30.27 854 25.22 22.2 72 26 1.9 35.5
05:55 1025 30.27 854 25.22 22.3 72.2 25 1.7 35.1
06:00 1025 30.27 854 25.22 22.5 72.5 26 2 35.6
06:05 1025 30.27 854 25.22 22.6 72.7 26 2.2 36
06:10 1025 30.27 854 25.22 22.5 72.5 27 2.6 36.6
06:15 1025 30.27 854 25.22 22.3 72.1 27 2.6 36.7
06:20 1025 30.27 854 25.22 22.3 72.2 28 3 37.4
06:25 1025 30.27 854 25.22 22.4 72.3 28 3.1 37.5
06:30 1025 30.27 854 25.22 22.4 72.3 28 3 37.5
06:35 1025 30.27 854 25.22 22.5 72.5 28 3.3 37.9
06:40 1025 30.27 854 25.22 22.5 72.5 29 3.6 38.4
06:45 1025 30.27 854 25.22 22.6 72.7 29 3.9 39
06:50 1025 30.27 854 25.22 22.5 72.5 29 4 39.1
06:55 1025 30.27 854 25.22 22.6 72.7 29 3.7 38.6
07:00 1025 30.27 854 25.22 22.9 73.1 28 3.7 38.7
07:05 1025 30.27 854 25.22 23.1 73.6 28 3.8 38.9
07:10 1025 30.27 854 25.22 23.3 73.9 28 4.2 39.5
07:15 1025 30.27 854 25.22 23.5 74.3 28 4.3 39.7
07:20 1025 30.27 854 25.22 23.5 74.4 29 4.6 40.2
07:25 1025 30.27 854 25.22 23.8 74.9 28 4.7 40.5
07:30 1025 30.27 854 25.22 24.2 75.5 28 4.9 40.8
07:35 1025 30.27 854 25.22 24.2 75.6 27 4.5 40.1
07:40 1025 30.27 854 25.22 24.4 75.9 28 4.8 40.7
07:45 1025 30.27 854 25.22 24.5 76.1 28 4.8 40.6
07:50 1025 30.27 854 25.22 24.3 75.7 28 4.7 40.4
07:55 1025 30.27 854 25.22 24.5 76 28 4.9 40.9
08:00 1025 30.27 854 25.22 24.7 76.4 28 5.1 41.2
08:05 1025 30.27 854 25.22 24.8 76.7 28 5.3 41.5
08:10 1025 30.27 854 25.22 25.7 78.3 26 5.1 41.2
08:15 1025 30.27 854 25.22 25.5 78 27 5.2 41.3
08:20 1025 30.27 854 25.22 25.5 77.8 27 5.3 41.6
08:25 1025 30.27 854 25.22 25.5 77.8 27 5.3 41.5
08:30 1025 30.27 854 25.22 25.4 77.6 27 5.5 41.8
08:35 1025 30.27 854 25.22 25.3 77.6 29 6.4 43.6
08:40 1025 30.27 854 25.22 25.5 77.8 29 6.3 43.3
08:45 1025 30.27 854 25.22 25.3 77.6 31 7.1 44.8
08:50 1025 30.27 854 25.22 25.4 77.7 30 6.9 44.4
08:55 1025 30.27 854 25.22 25.3 77.6 31 7 44.7
09:00 1025 30.27 854 25.22 25.3 77.6 29 6.3 43.4
09:05 1025 30.27 854 25.22 24.9 76.7 28 5.3 41.6
09:10 1025 30.27 854 25.22 25.1 77.2 30 6.6 43.9
09:15 1025 30.27 854 25.22 25.1 77.2 29 6.3 43.3
09:20 1025 30.27 854 25.22 25.7 78.2 30 7.2 44.9
09:25 1025 30.27 854 25.22 25.5 77.8 30 6.8 44.3
09:30 1025 30.27 854 25.22 25.6 78.1 29 6.6 44
09:35 1025 30.27 854 25.22 25.8 78.4 28 6.2 43.1
09:40 1025 30.27 854 25.22 25.6 78 28 5.8 42.5
09:45 1025 30.27 854 25.22 25.7 78.2 28 6.3 43.3
09:50 1025 30.27 854 25.22 25.8 78.4 29 6.4 43.6
09:55 1025 30.27 854 25.22 25.8 78.4 29 6.7 44.1
10:00 1025 30.27 854 25.22 26.2 79.1 28 6.8 44.2
10:05 1025 30.27 854 25.22 26.6 80 28 7 44.6
10:10 1024 30.24 854 25.22 26.8 80.2 29 7.5 45.6
10:15 1024 30.24 854 25.22 26.9 80.4 27 6.8 44.2
10:20 1024 30.24 854 25.22 27.5 81.4 28 7.7 45.8
10:25 1024 30.24 854 25.22 28.3 82.9 28 8.4 47.1
10:30 1024 30.24 853 25.19 27.5 81.6 27 7.4 45.3
10:35 1024 30.24 853 25.19 27.7 81.8 28 7.7 45.9
10:40 1024 30.24 853 25.19 27.7 81.8 29 8.1 46.6
10:45 1024 30.24 853 25.19 27.9 82.2 28 7.9 46.2
10:50 1024 30.24 853 25.19 28.6 83.4 26 7.5 45.4
10:55 1024 30.24 853 25.19 29.4 84.8 25 7.6 45.6
11:00 1024 30.24 853 25.19 29.6 85.3 24 7.3 45.1
11:05 1024 30.24 853 25.19 29.1 84.4 24 7 44.6
11:10 1024 30.24 853 25.19 29.2 84.5 23 6.2 43.2
11:15 1024 30.24 853 25.19 29.5 85.2 23 6.6 43.9
11:20 1024 30.24 853 25.19 29.7 85.4 23 6.9 44.4
11:25 1023 30.21 853 25.19 29.7 85.5 24 7.1 44.7
11:30 1023 30.21 853 25.19 29.8 85.6 22 6.4 43.5
11:35 1023 30.21 853 25.19 29.9 85.8 22 6.1 43
11:40 1023 30.21 852 25.16 30.5 86.9 21 6.4 43.5
11:45 1023 30.21 852 25.16 31.2 88.1 20 6 42.8
11:50 1023 30.21 852 25.16 31.3 88.4 21 6.5 43.8
11:55 1023 30.21 852 25.16 32.3 90.2 19 6.3 43.3
12:00 1023 30.21 852 25.16 31.8 89.3 21 7.2 45
12:05 1023 30.21 852 25.16 32 89.5 20 6.6 43.9
12:10 1023 30.21 852 25.16 31.6 88.8 20 6.1 43
12:15 1023 30.21 852 25.16 31.4 88.6 21 6.5 43.7
12:20 1023 30.21 852 25.16 31 87.7 21 6.6 43.9
12:25 1023 30.21 852 25.16 30.5 86.9 23 7.2 44.9
12:30 1023 30.21 852 25.16 30.1 86.2 24 7.8 46
12:35 1023 30.21 852 25.16 29.7 85.4 25 7.6 45.7
12:40 1023 30.21 852 25.16 29.4 84.8 25 7.5 45.5
12:45 1023 30.21 852 25.16 29 84.2 27 8.3 46.9
12:50 1023 30.21 852 25.16 28.7 83.6 25 7.1 44.7
12:55 1024 30.24 853 25.19 27.8 82 25 6.3 43.3
13:00 1024 30.24 853 25.19 26.5 79.7 28 6.8 44.2
13:05 1024 30.24 853 25.19 25.3 77.5 29 6.2 43.1
13:10 1024 30.24 853 25.19 25.2 77.4 27 5.2 41.3
13:15 1024 30.24 853 25.19 25.6 78 26 4.6 40.3
13:20 1023 30.21 853 25.19 26.7 80.1 19 1.5 34.7
13:25 1023 30.21 852 25.16 27.6 81.7 17 1.1 33.9
13:30 1023 30.21 852 25.16 28.2 82.7 17 1.1 34
13:35 1023 30.21 852 25.16 28.7 83.7 18 2.7 36.8
13:40 1023 30.21 852 25.16 28.7 83.6 25 7 44.6
13:45 1023 30.21 852 25.16 26.7 80 28 6.9 44.5
13:50 1022 30.18 852 25.16 26.2 79.1 29 7 44.6
13:55 1022 30.18 852 25.16 26.3 79.3 32 8.3 47
14:00 1022 30.18 852 25.16 26.2 79.1 30 7.5 45.5
14:05 1022 30.18 852 25.16 25.9 78.5 31 7.8 46
14:10 1022 30.18 852 25.16 26 78.7 32 8.3 47
14:15 1022 30.18 852 25.16 26.2 79.2 36 10.2 50.3
14:20 1022 30.18 851 25.13 27 80.7 27 6.5 43.7
14:25 1022 30.18 851 25.13 28.1 82.6 26 7 44.7
14:30 1022 30.18 851 25.13 28.3 83 25 6.7 44
14:35 1022 30.18 851 25.13 28.2 82.8 26 7 44.5
14:40 1022 30.18 851 25.13 27.8 82 28 8.1 46.6
14:45 1022 30.18 851 25.13 27.9 82.2 26 7.1 44.8
14:50 1022 30.18 851 25.13 28 82.5 27 7.3 45.2
14:55 1022 30.18 851 25.13 28.5 83.3 25 6.6 43.9
15:00 1022 30.18 851 25.13 28.9 84 26 7.5 45.6
15:05 1022 30.18 851 25.13 29 84.2 25 7.5 45.5
15:10 1022 30.18 851 25.13 28.9 84 24 6.7 44
15:15 1022 30.18 851 25.13 28.7 83.7 23 6 42.7
15:20 1022 30.18 851 25.13 28.6 83.6 24 6.3 43.4
15:25 1022 30.18 851 25.13 29 84.2 21 5.1 41.3
15:30 1022 30.18 851 25.13 28.9 84 23 6.1 42.9
15:35 1022 30.18 851 25.13 29.2 84.5 22 5.7 42.3
15:40 1022 30.18 851 25.13 28.8 83.9 24 6.4 43.5
15:45 1022 30.18 851 25.13 28.8 83.8 23 6 42.8
15:50 1022 30.18 851 25.13 28.6 83.5 24 6.4 43.5
15:55 1021 30.15 851 25.13 28.3 83 25 6.7 44.1
16:00 1021 30.15 851 25.13 28.5 83.2 25 6.8 44.2
16:05 1021 30.15 851 25.13 29 84.2 25 7.2 45
16:10 1021 30.15 850 25.1 29.1 84.4 25 7.6 45.7
16:15 1021 30.15 850 25.1 28.7 83.7 27 8 46.4
16:20 1021 30.15 850 25.1 28.5 83.3 26 7.2 44.9
16:25 1021 30.15 850 25.1 28.5 83.3 26 7.7 45.9
16:30 1021 30.15 850 25.1 28.7 83.7 26 7.7 45.9
16:35 1021 30.15 850 25.1 28.8 83.8 26 7.6 45.7
16:40 1021 30.15 850 25.1 28.8 83.8 25 7.4 45.3
16:45 1021 30.15 850 25.1 28.9 83.9 25 7 44.6
16:50 1021 30.15 850 25.1 28.8 83.8 26 7.5 45.5
16:55 1021 30.15 850 25.1 28.5 83.4 26 7.4 45.2
17:00 1021 30.15 850 25.1 28.3 82.9 28 8.3 46.9
17:05 1021 30.15 850 25.1 28 82.4 29 8.6 47.4
17:10 1021 30.15 850 25.1 27.6 81.8 28 7.8 46
17:15 1021 30.15 850 25.1 27.6 81.6 27 7.4 45.4
17:20 1021 30.15 850 25.1 27.5 81.5 27 7.2 45
17:25 1021 30.15 851 25.13 27.5 81.4 28 7.4 45.4
17:30 1022 30.18 851 25.13 27.4 81.3 29 7.8 46.1
17:35 1022 30.18 851 25.13 27.3 81.1 34 10.3 50.5
17:40 1021 30.15 850 25.1 26.7 80 32 8.9 48
17:45 1021 30.15 850 25.1 26.3 79.3 39 11.4 52.6
17:50 1021 30.15 850 25.1 25.7 78.2 37 10.1 50.2
17:55 1021 30.15 850 25.1 25.5 77.8 38 10.4 50.6
18:00 1021 30.15 850 25.1 25.6 78.1 33 8.3 47
18:05 1021 30.15 850 25.1 25.8 78.5 33 8.8 47.8
18:10 1021 30.15 850 25.1 26 78.9 35 9.7 49.4
18:15 1021 30.15 850 25.1 26.1 78.9 36 10.2 50.3
18:20 1021 30.15 851 25.13 26.1 78.9 35 9.7 49.5
18:25 1021 30.15 850 25.1 26 78.8 35 9.4 49
18:30 1021 30.15 851 25.13 25.8 78.4 36 9.6 49.3
18:35 1021 30.15 850 25.1 25.6 78 39 10.9 51.6
18:40 1021 30.15 851 25.13 25.6 78.1 38 10.3 50.6
18:45 1022 30.18 851 25.13 25.8 78.4 34 9.2 48.5
18:50 1022 30.18 851 25.13 25.9 78.6 39 11.2 52.1
18:55 1022 30.18 851 25.13 25.4 77.7 40 11 51.7
19:00 1022 30.18 851 25.13 25.4 77.6 34 8.5 47.2
19:05 1022 30.18 851 25.13 25.6 78 28 6.2 43.2
19:10 1022 30.18 851 25.13 26.5 79.6 31 8.1 46.6
19:15 1022 30.18 851 25.13 26.5 79.7 29 7.5 45.4
19:20 1022 30.18 851 25.13 26.5 79.6 30 7.9 46.3
19:25 1022 30.18 851 25.13 26.3 79.4 33 9 48.2
19:30 1022 30.18 851 25.13 25.9 78.6 33 8.6 47.5
19:35 1022 30.18 851 25.13 25.7 78.2 34 8.8 47.8
19:40 1022 30.18 851 25.13 25.5 77.8 33 8.4 47.2
19:45 1022 30.18 852 25.16 25.3 77.6 36 9.6 49.2
19:50 1023 30.21 852 25.16 24.8 76.6 36 9.1 48.3
19:55 1023 30.21 852 25.16 24.4 76 38 9.3 48.7
20:00 1023 30.21 852 25.16 23.9 75 38 8.9 48
20:05 1023 30.21 852 25.16 23.7 74.6 38 8.8 47.9
20:10 1023 30.21 852 25.16 23.6 74.4 39 8.9 48
20:15 1023 30.21 852 25.16 23.4 74.2 40 9.2 48.6
20:20 1023 30.21 852 25.16 23.1 73.5 42 9.5 49.2
20:25 1023 30.21 853 25.19 22.7 72.8 43 9.5 49.1
20:30 1024 30.24 853 25.19 22.5 72.6 42 9.3 48.8
20:35 1023 30.21 853 25.19 22.4 72.4 44 9.7 49.4
20:40 1024 30.24 853 25.19 22.3 72.1 45 9.8 49.6
20:45 1024 30.24 853 25.19 21.9 71.4 46 9.9 49.8
20:50 1024 30.24 853 25.19 21.7 71.1 46 9.9 49.9
20:55 1024 30.24 853 25.19 21.5 70.7 48 10 50.1
21:00 1024 30.24 853 25.19 21.3 70.4 47 9.9 49.7
21:05 1024 30.24 853 25.19 21.3 70.4 49 10.2 50.4
21:10 1024 30.24 853 25.19 21.1 69.9 49 10.1 50.2
21:15 1024 30.24 853 25.19 21 69.8 49 9.9 49.8
21:20 1024 30.24 853 25.19 21 69.8 50 10.3 50.6
21:25 1023 30.21 852 25.16 20.9 69.7 50 10.2 50.3
21:30 1023 30.21 852 25.16 20.9 69.6 48 9.7 49.5
21:35 1022 30.18 852 25.16 21 69.9 48 9.6 49.3
21:40 1023 30.21 852 25.16 21.2 70.2 47 9.5 49
21:45 1023 30.21 852 25.16 21.5 70.6 45 9.1 48.4
21:50 1023 30.21 852 25.16 21.7 71 44 9.2 48.6
21:55 1023 30.21 852 25.16 21.8 71.3 43 8.8 47.8
22:00 1022 30.18 852 25.16 22.1 71.7 44 9.3 48.8
22:05 1022 30.18 852 25.16 22.2 71.9 42 9 48.1
22:10 1022 30.18 852 25.16 22 71.6 45 9.7 49.4
22:15 1022 30.18 852 25.16 21.3 70.3 47 9.6 49.3
22:20 1022 30.18 852 25.16 21 69.8 48 9.6 49.3
22:25 1022 30.18 852 25.16 20.9 69.6 47 9.3 48.8
22:30 1022 30.18 851 25.13 21 69.7 46 9.1 48.4
22:35 1022 30.18 851 25.13 21.1 69.9 45 8.9 48
22:40 1022 30.18 851 25.13 21.3 70.3 44 8.7 47.7
22:45 1022 30.18 851 25.13 21.5 70.7 43 8.6 47.6
22:50 1022 30.18 851 25.13 21.7 71 43 8.8 47.8
22:55 1022 30.18 851 25.13 21.7 71.1 43 8.8 47.8
23:00 1022 30.18 851 25.13 21.8 71.3 43 9 48.1
23:05 1022 30.18 851 25.13 21.7 71.1 44 9.2 48.5
23:10 1022 30.18 851 25.13 21.5 70.6 46 9.5 49
23:15 1022 30.18 851 25.13 21.2 70.2 47 9.6 49.4
23:20 1022 30.18 851 25.13 21.1 70 48 9.8 49.6
23:25 1022 30.18 851 25.13 21 69.8 48 9.7 49.4
23:30 1022 30.18 851 25.13 20.9 69.6 48 9.6 49.3
23:35 1022 30.18 851 25.13 20.9 69.5 49 9.9 49.8
23:40 1022 30.18 851 25.13 20.6 69 53 10.7 51.3
23:45 1022 30.18 851 25.13 20.1 68.1 54 10.7 51.2
23:50 1022 30.18 851 25.13 19.9 67.8 54 10.5 51
23:55 1022 30.18 851 25.13 19.9 67.8 54 10.4 50.6
24:00 1022 30.18 851 25.13 19.9 67.9 52 10 50